Miscellaneous Local Product
Issued by NWS Hastings, NE

Home | Current Version | Previous Version | Graphics & Text | Print | Product List | Glossary On
Versions: 1 2 3 4 5 6 7 8 9 10 11 12 13 14 15 16 17 18 19 20 21 22 23 24 25 26 27 28 29 30 31 32 33 34 35 36 37 38 39 40 41 42 43 44 45 46 47 48 49 50
558
AXUS43 KGID 230602
MISGRI

GID CWA HOURLY WEATHER ROUNDUP
NATIONAL WEATHER SERVICE HASTINGS NE
100 AM CDT FRI JUN 23 2017

NOTE: "FAIR" INDICATES FEW OR NO CLOUDS BELOW 12,000 FEET WITH NO
SIGNIFICANT WEATHER AND/OR OBSTRUCTIONS TO VISIBILITY.

...SOUTH CENTRAL NEBRASKA...

CITY           SKY/WX    TMP DP  RH WIND       PRES   REMARKS
GRAND ISLAND   MOCLDY    67  60  78 NE12      29.90R
HASTINGS       CLOUDY    69  60  73 NE15G23   29.89R
KEARNEY        CLOUDY    66  54  63 N15       29.91S
ORD            CLEAR     60  49  66 NW7       29.92R
YORK           CLOUDY    72  64  78 N17       29.87R
AURORA         MOCLDY    68  59  74 N15       29.88R
LEXINGTON      PTCLDY    62  53  71 N5        29.94R
HOLDREGE       CLOUDY    65  54  66 N14       29.91R
HEBRON         CLOUDY    75  64  68 N18G29    29.82R

...NEBRASKA PANHANDLE...

CITY           SKY/WX    TMP DP  RH WIND       PRES   REMARKS
CHADRON        CLOUDY    62  36  37 NE7       30.07R
ALLIANCE       LGT RAIN  59  51  75 N5        30.06R
SCOTTSBLUFF    CLOUDY    67  42  40 NE12      30.07R
SIDNEY         CLOUDY    63  52  67 E8        30.05R

...WESTERN AND NORTH CENTRAL NEBRASKA...

CITY           SKY/WX    TMP DP  RH WIND       PRES   REMARKS
VALENTINE      CLEAR     65  36  34 N13       30.00R
AINSWORTH      PTCLDY    57  51  79 W6        29.98R
ONEILL         PTCLDY    56  52  85 W6        29.93R
BROKEN BOW     PTCLDY    61  51  70 N3        29.94R
IMPERIAL       MOCLDY    63  48  58 NE8       29.99R
NORTH PLATTE   PTCLDY    64  49  57 SE6       29.96R
MCCOOK         PTCLDY    66  49  54 NE15      29.94R

...EASTERN NEBRASKA...

CITY           SKY/WX    TMP DP  RH WIND       PRES   REMARKS
NORFOLK        CLEAR     63  53  70 N6        29.87S
SO SIOUX CITY    N/A    N/A N/A N/A MISG      29.84S
TEKAMAH        CLOUDY    71  58  63 N14       29.82R
COLUMBUS       CLOUDY    70  61  73 N9        29.89R
ALBION         PTCLDY    65  50  59 N3        29.89S
OMAHA EPPLEY   CLOUDY    73  62  68 N14G22    29.81R
OFFUTT AFB     MOCLDY    71  65  83 N10       29.80R
MILLARD        CLOUDY    75  65  72 N3        29.83R
LINCOLN        CLOUDY    74  63  68 N18G25    29.83R
NEBRASKA CITY  CLOUDY    73  73 100 N10       29.78R
BEATRICE       TSTM      73  67  83 N17G23    29.80R
FALLS CITY     MOCLDY    78  70  76 SW9       29.70R

...NORTHERN KANSAS...

CITY           SKY/WX    TMP DP  RH WIND       PRES   REMARKS
GOODLAND       CLOUDY    67  57  70 NE13      29.98R
HILL CITY      CLOUDY    73  61  65 NE9       29.92R
NORTON         CLEAR     68  52  56 N17G24    29.89S
PHILLIPSBURG   CLEAR     72  57  60 N13G22    29.88R
SMITH CENTER   MOCLDY    70  61  73 N17G26    29.84R
HAYS           CLOUDY    69  65  86 SW8       29.88R
RUSSELL        CLOUDY    71  66  84 N12       29.82S
CONCORDIA      CLOUDY    75  66  73 N17G25    29.78R
SALINA         CLOUDY    83  67  58 W33G44    29.73R
TOPEKA         PTCLDY    77  74  90 E5        29.72R



USA.gov is the U.S. government's official web portal to all federal, state and local government web resources and services.